Tracking 25949 objects as of 9-Aug-2022
HD Live streaming from Space Station
objects crossing your sky now

ARIANE 5 R/B

Track ARIANE 5 R/B now!


NORAD ID: 33276
Int'l Code: 2008-038C
Perigee: 269.3 km
Apogee: 33,317.6 km
Inclination: 2.4 °
Period: 584.8 minutes
Semi major axis: 23164 km
RCS: 23.7749 m2 (large)
Launch date: August 14, 2008
Source: France (FR)
Launch site: FRENCH GUIANA (FRGUI)

Note: This is a ROCKET BODY
aabbcc
Your satellite tracking list
Your tracking list is empty




NASA's NSSDC Master Catalog

Two Line Element Set (TLE):
1 33276U 08038C   22220.56466045  .00002542  00000-0  92306-3 0  9990
2 33276   2.4315  40.0181 7133402 293.9449   9.3873  2.46246042121231
Source of the keplerian elements: AFSPC